Flag for Canada Weather past 2 weeks in Rainy River, Ontario, Canada

Now
71 °F

Mild.


Feels Like: 70 °F
Forecast: 60 / 72 °F
Wind: 6 mph from North

Location: Baudette International Airport

Current Time: Jul 5, 2015 at 12:56:06 PM

Latest Report: Jul 5, 2015 at 11:53 AM


Visibility: 10 mi

Pressure: 29.77 "Hg

Humidity: 84%

Dew point: 66 °F

Location of Rainy RiverLocation

Historic Weather in Rainy River — Graph

°F

Rainy River temperature yesterday

Maximum temperature yesterday: 80 °F (at 2:53 PM)
Minimum temperature yesterday: 56 °F (at 3:53 AM)
Average temperature yesterday: 69 °F

Past Weeks' High & Low Weather Summary

 TemperatureHumidityPressure
High83 °F (Jun 26, 3:53 PM)100% (Jun 21, 3:53 AM)30.11 "Hg (Jun 21, 3:53 AM)
Low47 °F (Jun 21, 3:00 AM)31% (Jun 26, 2:53 PM)29.63 "Hg (Jun 22, 9:53 AM)
Average66 °F72%29.91 "Hg
* Reported Jun 20 10:53 AM — Jul 5 10:53 AM, Rainy River, Weather by CustomWeather, © 2015

Note: Actual official high and low records may vary slightly from our data, if they occured in-between our weather recording intervals... More about our weather records

Advertising

Rainy River weather history for previous 24 hours

 ConditionsComfort  
Time TempWeatherWind HumidityBarometerVisibility
10:53 AM
Sun, Jul 5
72 °FPassing clouds.No wind78%29.78 "Hg10 mi
9:53 AM73 °FPassing clouds.6 mph76%29.77 "Hg10 mi
8:53 AM72 °FPassing clouds.No wind78%29.76 "Hg10 mi
7:53 AM68 °FScattered clouds.6 mph87%29.77 "Hg10 mi
6:53 AM65 °FFog.5 mph94%29.76 "Hg6 mi
5:53 AM65 °FFog.12 mph91%29.75 "Hg6 mi
4:53 AM64 °FMostly cloudy.10 mph90%29.79 "Hg10 mi
3:53 AM65 °FRain. Fog.8 mph87%29.80 "Hg5 mi
3:01 AM63 °FHeavy rain. Fog.9 mph90%29.87 "Hg1 mi
1:53 AM63 °FPassing clouds.6 mph90%29.81 "Hg10 mi
12:53 AM62 °FPassing clouds.5 mph93%29.83 "Hg10 mi
11:53 PM
Sat, Jul 4
63 °FLight rain. Mostly cloudy.8 mph90%29.84 "Hg9 mi
10:53 PM69 °FLight rain. Partly cloudy.21 mph68%29.85 "Hg8 mi
9:53 PM72 °FHaze.5 mph73%29.81 "Hg6 mi
8:53 PM74 °FScattered clouds.7 mph69%29.80 "Hg4 mi
7:53 PM77 °FSunny.8 mph62%29.78 "Hg5 mi
6:53 PM78 °FSunny.8 mph58%29.75 "Hg5 mi
5:53 PM80 °FSunny.13 mph52%29.78 "Hg5 mi
4:53 PM80 °FSunny.14 mph52%29.82 "Hg5 mi
3:53 PM80 °FSunny.15 mph49%29.83 "Hg5 mi
2:53 PM80 °FSunny.13 mph51%29.84 "Hg5 mi
1:53 PM79 °FSunny.10 mph52%29.85 "Hg5 mi
12:53 PM78 °FSunny.12 mph52%29.87 "Hg6 mi
Weather by CustomWeather, © 2015

See weather overviewHow to use our weather pages